Simultaneous Nadir Overpasses (SNOs) Predictions

Prediction of SNOs between LANDSAT-8 and NOAA-19 Satellite Orbit:

Table of predicted SNOs for the next 14.0 days since TLE Epoch: 3/26/2022
Index Date (LANDSAT-8) Time (LANDSAT-8) Lat,Lon (LANDSAT-8) SZA (LANDSAT-8 ) Date (NOAA-19) Time (NOAA-19) Lat,Lon (NOAA-19) SZA (NOAA-19 ) Distance(km) Time Diff (sec)
1 03/26/2022 09:16:32 -80.74,-104.70 100.06 03/26/2022 09:15:58 -80.74,-104.83 100.08 2.41 34
2 03/26/2022 10:05:58 80.74, 62.99 79.94 03/26/2022 10:06:54 80.73, 63.06 79.95 2.40 56
3 03/28/2022 15:39:40 -80.75, 159.67 100.90 03/28/2022 15:39:58 -80.74, 159.53 100.92 3.11 18
4 03/30/2022 21:13:22 80.74,-103.97 78.22 03/30/2022 21:12:56 80.74,-103.87 78.22 2.04 26
5 03/30/2022 22:02:49 -80.73, 63.66 101.80 03/30/2022 22:03:59 -80.74, 63.51 101.79 2.74 70
6 04/02/2022 02:47:04 -80.74, -7.35 102.62 04/02/2022 02:46:01 -80.75, -7.44 102.64 2.23 63
7 04/02/2022 03:36:30 80.74, 160.28 77.37 04/02/2022 03:36:56 80.74, 160.25 77.38 0.60 26
8 04/04/2022 09:10:12 -80.74,-103.13 103.47 04/04/2022 09:10:01 -80.75,-103.18 103.47 1.33 11
9 04/06/2022 14:43:52 80.76, -6.30 75.75 04/06/2022 14:42:57 80.75, -6.44 75.70 2.76 55
10 04/06/2022 15:33:20 -80.74, 161.04 104.32 04/06/2022 15:34:01 -80.74, 161.03 104.30 0.87 41



Historial Predications of SNOs between LANDSAT-8 and NOAA-19
